Time,TemperatureF,DewpointF,PressureIn,WindDirection,WindDirectionDegrees,WindSpeedMPH,WindSpeedGustMPH,Humidity,HourlyPrecipIn,Conditions,Clouds,dailyrainin,SoftwareType,DateUTC
2013-09-28 00:00:00,71.0,62.7,29.66,SE,132,11.0,16.0,75,0.00,,SKC,0.00,VWS V14.01,2013-09-28 05:00:00,
2013-09-28 00:03:00,71.0,62.7,29.66,SE,130,11.0,12.0,75,0.00,,SKC,0.00,VWS V14.01,2013-09-28 05:03:00,
2013-09-28 00:08:00,70.9,62.6,29.65,SE,132,10.0,15.0,75,0.00,,SKC,0.00,VWS V14.01,2013-09-28 05:08:00,
2013-09-28 00:13:00,70.8,62.5,29.65,SE,126,10.0,15.0,75,0.00,,SKC,0.00,VWS V14.01,2013-09-28 05:13:00,
2013-09-28 00:18:00,70.7,62.4,29.65,SE,138,13.0,18.0,75,0.00,,SKC,0.00,VWS V14.01,2013-09-28 05:18:00,
2013-09-28 00:23:00,70.6,61.9,29.65,SE,134,11.0,18.0,74,0.00,,SKC,0.00,VWS V14.01,2013-09-28 05:23:00,
2013-09-28 00:28:00,70.6,61.9,29.65,SE,136,9.0,18.0,74,0.00,,SKC,0.00,VWS V14.01,2013-09-28 05:28:00,
2013-09-28 00:30:00,71.8,63.1,29.66,SE,136,8.0,13.0,74,0.00,,SKC,0.00,VWS V14.01,2013-09-28 05:30:00,
2013-09-28 00:33:00,70.6,61.9,29.65,SSE,159,6.0,16.0,74,0.00,,SKC,0.00,VWS V14.01,2013-09-28 05:33:00,
2013-09-28 00:38:00,70.6,61.9,29.65,SE,136,8.0,16.0,74,0.00,,SKC,0.00,VWS V14.01,2013-09-28 05:38:00,
2013-09-28 00:43:00,70.6,61.9,29.64,SE,137,8.0,16.0,74,0.00,,SKC,0.00,VWS V14.01,2013-09-28 05:43:00,
2013-09-28 00:49:00,70.7,61.6,29.64,SE,126,9.0,16.0,73,0.00,,SKC,0.00,VWS V14.01,2013-09-28 05:49:00,
2013-09-28 00:54:00,70.8,61.7,29.64,SE,134,7.0,16.0,73,0.00,,SKC,0.00,VWS V14.01,2013-09-28 05:54:00,
2013-09-28 00:59:00,70.8,61.7,29.64,SE,138,11.0,16.0,73,0.00,,SKC,0.00,VWS V14.01,2013-09-28 05:59:00,
2013-09-28 01:00:00,71.0,62.7,29.66,SE,132,11.0,16.0,75,0.00,,SKC,0.00,VWS V14.01,2013-09-28 06:00:00,
2013-09-28 01:04:00,70.7,61.6,29.63,SE,137,11.0,14.0,73,0.00,,SKC,0.00,VWS V14.01,2013-09-28 06:04:00,
2013-09-28 01:09:00,70.7,61.6,29.63,SE,137,10.0,14.0,73,0.00,,SKC,0.00,VWS V14.01,2013-09-28 06:09:00,
2013-09-28 01:15:00,70.6,61.5,29.63,ESE,121,9.0,16.0,73,0.00,,SKC,0.00,VWS V14.01,2013-09-28 06:15:00,
2013-09-28 01:20:00,70.4,61.3,29.63,SE,130,9.0,18.0,73,0.00,,SKC,0.00,VWS V14.01,2013-09-28 06:20:00,
2013-09-28 01:25:00,70.3,61.6,29.63,SE,132,9.0,18.0,74,0.00,,SKC,0.00,VWS V14.01,2013-09-28 06:25:00,
2013-09-28 01:30:00,70.1,61.0,29.63,SE,131,11.0,18.0,73,0.00,,SKC,0.00,VWS V14.01,2013-09-28 06:30:00,
2013-09-28 01:35:00,70.2,60.8,29.63,SSE,151,3.0,14.0,72,0.00,,SKC,0.00,VWS V14.01,2013-09-28 06:35:00,
2013-09-28 01:40:00,70.3,60.9,29.63,SE,135,7.0,14.0,72,0.00,,SKC,0.00,VWS V14.01,2013-09-28 06:40:00,
2013-09-28 01:45:00,70.3,60.9,29.63,SSE,148,9.0,15.0,72,0.00,,SKC,0.00,VWS V14.01,2013-09-28 06:45:00,
2013-09-28 01:50:00,70.4,61.0,29.63,SE,143,7.0,15.0,72,0.00,,SKC,0.00,VWS V14.01,2013-09-28 06:50:00,
2013-09-28 01:56:00,70.4,61.0,29.63,SE,142,7.0,16.0,72,0.00,,SKC,0.00,VWS V14.01,2013-09-28 06:56:00,
2013-09-28 02:00:00,70.7,61.6,29.64,SE,127,6.0,16.0,73,0.00,,SKC,0.00,VWS V14.01,2013-09-28 07:00:00,
2013-09-28 02:01:00,70.4,60.6,29.62,SE,136,8.0,16.0,71,0.00,,SKC,0.00,VWS V14.01,2013-09-28 07:01:00,
2013-09-28 02:06:00,70.4,60.6,29.62,South,186,6.0,13.0,71,0.00,,SKC,0.00,VWS V14.01,2013-09-28 07:06:00,
2013-09-28 02:11:00,70.3,60.9,29.62,SSE,147,8.0,13.0,72,0.00,,SKC,0.00,VWS V14.01,2013-09-28 07:11:00,
2013-09-28 02:16:00,70.2,60.8,29.62,SSE,155,7.0,14.0,72,0.00,,SKC,0.00,VWS V14.01,2013-09-28 07:16:00,
2013-09-28 02:21:00,70.1,60.7,29.61,SE,134,6.0,14.0,72,0.00,,SKC,0.00,VWS V14.01,2013-09-28 07:21:00,
2013-09-28 02:26:00,70.1,60.7,29.61,SE,132,9.0,15.0,72,0.00,,SKC,0.00,VWS V14.01,2013-09-28 07:26:00,
2013-09-28 02:30:00,70.2,61.2,29.63,SE,134,9.0,18.0,73,0.00,,SKC,0.00,VWS V14.01,2013-09-28 07:30:00,
2013-09-28 02:31:00,70.1,60.7,29.62,SE,146,7.0,7.0,72,0.00,,SKC,0.00,VWS V14.01,2013-09-28 07:31:00,
2013-09-28 02:36:00,70.1,60.7,29.62,SE,131,2.0,13.0,72,0.00,,SKC,0.00,VWS V14.01,2013-09-28 07:36:00,
2013-09-28 02:41:00,70.0,60.2,29.62,SE,143,2.0,14.0,71,0.00,,SKC,0.00,VWS V14.01,2013-09-28 07:41:00,
2013-09-28 02:46:00,70.0,60.2,29.62,SE,133,6.0,14.0,71,0.00,,SKC,0.00,VWS V14.01,2013-09-28 07:46:00,
2013-09-28 02:51:00,69.9,60.5,29.61,SE,142,7.0,14.0,72,0.00,,SKC,0.00,VWS V14.01,2013-09-28 07:51:00,
2013-09-28 02:56:00,69.9,60.5,29.61,ESE,123,8.0,14.0,72,0.00,,SKC,0.00,VWS V14.01,2013-09-28 07:56:00,
2013-09-28 03:00:00,70.4,61.0,29.62,SE,138,6.0,16.0,72,0.00,,SKC,0.00,VWS V14.01,2013-09-28 08:00:00,
2013-09-28 03:01:00,69.8,60.4,29.60,SE,142,8.0,8.0,72,0.00,,SKC,0.00,VWS V14.01,2013-09-28 08:01:00,
2013-09-28 03:06:00,69.7,60.3,29.60,SE,132,8.0,13.0,72,0.00,,SKC,0.00,VWS V14.01,2013-09-28 08:06:00,
2013-09-28 03:11:00,69.6,60.6,29.60,SSE,150,6.0,13.0,73,0.00,,SKC,0.00,VWS V14.01,2013-09-28 08:11:00,
2013-09-28 03:16:00,69.4,60.4,29.60,SE,142,12.0,13.0,73,0.00,,SKC,0.00,VWS V14.01,2013-09-28 08:16:00,
2013-09-28 03:21:00,69.3,60.3,29.60,SE,126,13.0,14.0,73,0.00,,SKC,0.00,VWS V14.01,2013-09-28 08:21:00,
2013-09-28 03:26:00,69.2,60.2,29.60,SE,140,8.0,14.0,73,0.00,,SKC,0.00,VWS V14.01,2013-09-28 08:26:00,
2013-09-28 03:30:00,70.1,60.7,29.62,SE,146,4.0,15.0,72,0.00,,SKC,0.00,VWS V14.01,2013-09-28 08:30:00,
2013-09-28 03:31:00,69.1,60.1,29.59,SE,146,13.0,13.0,73,0.00,,SKC,0.00,VWS V14.01,2013-09-28 08:31:00,
2013-09-28 03:36:00,68.9,60.3,29.59,SE,128,8.0,13.0,74,0.00,,SKC,0.00,VWS V14.01,2013-09-28 08:36:00,
2013-09-28 03:41:00,68.8,60.2,29.59,SE,145,9.0,19.0,74,0.00,,SKC,0.00,VWS V14.01,2013-09-28 08:41:00,
2013-09-28 03:46:00,68.7,60.1,29.59,SE,131,8.0,19.0,74,0.00,,SKC,0.00,VWS V14.01,2013-09-28 08:46:00,
2013-09-28 03:51:00,68.5,60.3,29.59,SSE,159,10.0,19.0,75,0.00,,SKC,0.00,VWS V14.01,2013-09-28 08:51:00,
2013-09-28 03:56:00,68.4,60.2,29.59,SE,136,12.0,19.0,75,0.00,,SKC,0.00,VWS V14.01,2013-09-28 08:56:00,
2013-09-28 04:00:00,69.8,60.4,29.61,SE,140,7.0,14.0,72,0.00,,SKC,0.00,VWS V14.01,2013-09-28 09:00:00,
2013-09-28 04:01:00,68.3,60.1,29.59,SE,140,7.0,12.0,75,0.00,,SKC,0.00,VWS V14.01,2013-09-28 09:01:00,
2013-09-28 04:06:00,68.1,59.9,29.59,SE,140,10.0,15.0,75,0.00,,SKC,0.00,VWS V14.01,2013-09-28 09:06:00,
2013-09-28 04:11:00,68.0,59.8,29.59,SE,144,11.0,15.0,75,0.00,,SKC,0.00,VWS V14.01,2013-09-28 09:11:00,
2013-09-28 04:16:00,67.9,60.1,29.59,SE,139,8.0,15.0,76,0.00,,SKC,0.00,VWS V14.01,2013-09-28 09:16:00,
2013-09-28 04:22:00,67.8,60.0,29.58,SE,144,10.0,15.0,76,0.00,,SKC,0.00,VWS V14.01,2013-09-28 09:22:00,
2013-09-28 04:27:00,67.7,59.9,29.58,SE,138,9.0,15.0,76,0.00,,SKC,0.00,VWS V14.01,2013-09-28 09:27:00,
2013-09-28 04:30:00,69.1,60.5,29.59,SSE,147,8.0,14.0,74,0.00,,SKC,0.00,VWS V14.01,2013-09-28 09:30:00,
2013-09-28 04:32:00,67.5,60.0,29.58,SE,130,10.0,14.0,77,0.00,,SKC,0.00,VWS V14.01,2013-09-28 09:32:00,
2013-09-28 04:37:00,67.4,60.0,29.58,SE,131,9.0,14.0,77,0.00,,SKC,0.00,VWS V14.01,2013-09-28 09:37:00,
2013-09-28 04:42:00,67.2,59.8,29.58,SE,124,9.0,14.0,77,0.00,,SKC,0.00,VWS V14.01,2013-09-28 09:42:00,
2013-09-28 04:47:00,67.1,60.0,29.57,SE,128,13.0,14.0,78,0.00,,SKC,0.00,VWS V14.01,2013-09-28 09:47:00,
2013-09-28 04:52:00,67.0,59.9,29.57,SE,131,10.0,14.0,78,0.00,,SKC,0.00,VWS V14.01,2013-09-28 09:52:00,
2013-09-28 04:57:00,66.9,59.8,29.57,SE,134,9.0,14.0,78,0.00,,SKC,0.00,VWS V14.01,2013-09-28 09:57:00,
2013-09-28 05:00:00,68.3,60.1,29.59,SE,128,10.0,19.0,75,0.00,,SKC,0.00,VWS V14.01,2013-09-28 10:00:00,
2013-09-28 05:02:00,66.8,59.7,29.57,SSE,148,8.0,12.0,78,0.00,,SKC,0.00,VWS V14.01,2013-09-28 10:02:00,
2013-09-28 05:07:00,66.9,60.2,29.57,SE,125,8.0,15.0,79,0.00,,SKC,0.00,VWS V14.01,2013-09-28 10:07:00,
2013-09-28 05:12:00,66.8,60.1,29.57,SE,139,7.0,15.0,79,0.00,,SKC,0.00,VWS V14.01,2013-09-28 10:12:00,
2013-09-28 05:17:00,66.8,60.1,29.56,SE,136,11.0,15.0,79,0.00,,SKC,0.00,VWS V14.01,2013-09-28 10:17:00,
2013-09-28 05:22:00,66.9,60.2,29.56,SE,140,8.0,15.0,79,0.00,,SKC,0.00,VWS V14.01,2013-09-28 10:22:00,
2013-09-28 05:28:00,66.9,59.8,29.56,SE,125,12.0,15.0,78,0.00,,SKC,0.00,VWS V14.01,2013-09-28 10:28:00,
2013-09-28 05:30:00,67.6,60.1,29.58,SE,127,9.0,15.0,77,0.00,,SKC,0.00,VWS V14.01,2013-09-28 10:30:00,
2013-09-28 05:34:00,67.1,60.0,29.56,SE,136,9.0,14.0,78,0.00,,SKC,0.00,VWS V14.01,2013-09-28 10:34:00,
2013-09-28 05:39:00,67.1,60.4,29.56,SE,144,9.0,16.0,79,0.00,,SKC,0.00,VWS V14.01,2013-09-28 10:39:00,
2013-09-28 05:44:00,67.2,60.1,29.56,SE,141,13.0,22.0,78,0.00,,SKC,0.00,VWS V14.01,2013-09-28 10:44:00,
2013-09-28 05:49:00,67.3,59.8,29.56,SE,129,11.0,22.0,77,0.00,,SKC,0.00,VWS V14.01,2013-09-28 10:49:00,
2013-09-28 05:54:00,67.3,60.2,29.56,SE,135,10.0,22.0,78,0.00,,SKC,0.00,VWS V14.01,2013-09-28 10:54:00,
2013-09-28 05:59:00,67.2,60.5,29.55,SE,130,6.0,22.0,79,0.00,,SKC,0.00,VWS V14.01,2013-09-28 10:59:00,
2013-09-28 06:00:00,66.9,60.2,29.57,SE,134,10.0,14.0,79,0.00,,SKC,0.00,VWS V14.01,2013-09-28 11:00:00,
2013-09-28 06:04:00,67.2,60.1,29.55,SE,132,10.0,15.0,78,0.00,,SKC,0.00,VWS V14.01,2013-09-28 11:04:00,
2013-09-28 06:09:00,67.1,60.0,29.55,SE,132,6.0,16.0,78,0.00,,SKC,0.00,VWS V14.01,2013-09-28 11:09:00,
2013-09-28 06:14:00,67.1,60.4,29.55,SE,142,9.0,16.0,79,0.00,,SKC,0.00,VWS V14.01,2013-09-28 11:14:00,
2013-09-28 06:19:00,67.1,60.4,29.55,SE,131,12.0,16.0,79,0.00,,SKC,0.00,VWS V14.01,2013-09-28 11:19:00,
2013-09-28 06:24:00,67.1,60.4,29.55,ESE,123,10.0,16.0,79,0.00,,SKC,0.00,VWS V14.01,2013-09-28 11:24:00,
2013-09-28 06:29:00,67.0,60.3,29.55,SSE,148,7.0,18.0,79,0.00,,SKC,0.00,VWS V14.01,2013-09-28 11:29:00,
2013-09-28 06:30:00,67.0,59.9,29.56,SE,126,9.0,15.0,78,0.00,,SKC,0.00,VWS V14.01,2013-09-28 11:30:00,
2013-09-28 06:34:00,67.0,60.3,29.54,ESE,117,12.0,15.0,79,0.00,,SKC,0.00,VWS V14.01,2013-09-28 11:34:00,
2013-09-28 06:39:00,66.9,60.2,29.54,SE,126,10.0,16.0,79,0.00,,SKC,0.00,VWS V14.01,2013-09-28 11:39:00,
2013-09-28 06:44:00,66.9,60.2,29.54,SE,134,9.0,16.0,79,0.00,,SKC,0.00,VWS V14.01,2013-09-28 11:44:00,
2013-09-28 06:49:00,66.8,60.1,29.54,SE,133,5.0,21.0,79,0.00,,SKC,0.00,VWS V14.01,2013-09-28 11:49:00,
2013-09-28 06:54:00,66.9,60.2,29.54,SE,144,10.0,21.0,79,0.00,,SKC,0.00,VWS V14.01,2013-09-28 11:54:00,
2013-09-28 06:59:00,66.9,60.2,29.54,SE,135,11.0,21.0,79,0.00,,SKC,0.00,VWS V14.01,2013-09-28 11:59:00,
2013-09-28 07:00:00,67.2,60.1,29.55,SSE,156,8.0,22.0,78,0.00,,SKC,0.00,VWS V14.01,2013-09-28 12:00:00,
2013-09-28 07:04:00,66.9,60.2,29.53,SE,126,11.0,15.0,79,0.00,,SKC,0.00,VWS V14.01,2013-09-28 12:04:00,
2013-09-28 07:09:00,66.9,60.2,29.53,SSE,155,15.0,15.0,79,0.00,,SKC,0.00,VWS V14.01,2013-09-28 12:09:00,
2013-09-28 07:14:00,66.9,60.2,29.53,SE,134,11.0,16.0,79,0.00,,SKC,0.00,VWS V14.01,2013-09-28 12:14:00,
2013-09-28 07:19:00,67.0,60.3,29.53,ESE,114,9.0,16.0,79,0.00,,SKC,0.00,VWS V14.01,2013-09-28 12:19:00,
2013-09-28 07:24:00,67.0,60.3,29.53,SE,138,12.0,19.0,79,0.00,,SKC,0.00,VWS V14.01,2013-09-28 12:24:00,
2013-09-28 07:29:00,67.0,60.3,29.52,SSE,150,9.0,20.0,79,0.00,,SKC,0.00,VWS V14.01,2013-09-28 12:29:00,
2013-09-28 07:30:00,67.0,60.3,29.54,SE,142,12.0,18.0,79,0.00,,SKC,0.00,VWS V14.01,2013-09-28 12:30:00,
2013-09-28 07:34:00,67.0,60.3,29.52,SE,127,20.0,23.0,79,0.00,,SKC,0.00,VWS V14.01,2013-09-28 12:34:00,
2013-09-28 07:39:00,67.0,60.3,29.52,SE,138,19.0,23.0,79,0.00,,SKC,0.00,VWS V14.01,2013-09-28 12:39:00,
2013-09-28 07:44:00,66.8,60.1,29.52,ESE,121,14.0,23.0,79,0.00,,SKC,0.00,VWS V14.01,2013-09-28 12:44:00,
2013-09-28 07:50:00,66.7,60.0,29.52,SE,132,12.0,23.0,79,0.00,,SKC,0.00,VWS V14.01,2013-09-28 12:50:00,
2013-09-28 07:55:00,66.6,59.9,29.52,SE,135,12.0,23.0,79,0.00,,SKC,0.00,VWS V14.01,2013-09-28 12:55:00,
2013-09-28 08:00:00,66.5,60.5,29.51,SE,132,10.0,23.0,81,0.00,,SKC,0.00,VWS V14.01,2013-09-28 13:00:00,
2013-09-28 08:05:00,66.4,60.0,29.51,SE,137,14.0,15.0,80,0.00,,SKC,0.00,VWS V14.01,2013-09-28 13:05:00,
2013-09-28 08:10:00,66.4,60.4,29.50,SE,132,12.0,19.0,81,0.00,,SKC,0.00,VWS V14.01,2013-09-28 13:10:00,
2013-09-28 08:15:00,66.5,60.5,29.50,SSE,158,15.0,19.0,81,0.00,,SKC,0.00,VWS V14.01,2013-09-28 13:15:00,
2013-09-28 08:20:00,66.5,60.5,29.50,SE,138,12.0,19.0,81,0.00,,SKC,0.00,VWS V14.01,2013-09-28 13:20:00,
2013-09-28 08:25:00,66.6,60.6,29.50,SE,130,9.0,19.0,81,0.00,,SKC,0.00,VWS V14.01,2013-09-28 13:25:00,
2013-09-28 08:30:00,66.7,60.3,29.50,SSE,150,8.0,20.0,80,0.00,,SKC,0.00,VWS V14.01,2013-09-28 13:30:00,
2013-09-28 08:35:00,66.8,60.4,29.50,SE,143,13.0,16.0,80,0.00,,SKC,0.00,VWS V14.01,2013-09-28 13:35:00,
2013-09-28 08:40:00,66.9,60.2,29.50,SE,134,10.0,18.0,79,0.00,,SKC,0.00,VWS V14.01,2013-09-28 13:40:00,
2013-09-28 08:45:00,67.0,60.6,29.50,SE,132,10.0,18.0,80,0.00,,SKC,0.00,VWS V14.01,2013-09-28 13:45:00,
2013-09-28 08:50:00,67.1,60.4,29.50,SE,133,10.0,18.0,79,0.00,,SKC,0.00,VWS V14.01,2013-09-28 13:50:00,
2013-09-28 08:55:00,67.1,60.7,29.49,SE,132,7.0,18.0,80,0.00,,SKC,0.00,VWS V14.01,2013-09-28 13:55:00,
2013-09-28 09:00:00,66.5,60.5,29.51,SE,126,10.0,23.0,81,0.00,,SKC,0.00,VWS V14.01,2013-09-28 14:00:00,
2013-09-28 09:01:00,67.2,60.8,29.49,SE,146,14.0,18.0,80,0.00,,SKC,0.00,VWS V14.01,2013-09-28 14:01:00,
2013-09-28 09:06:00,67.2,60.8,29.49,SE,135,12.0,14.0,80,0.00,,SKC,0.00,VWS V14.01,2013-09-28 14:06:00,
2013-09-28 09:11:00,67.3,60.6,29.49,SE,138,9.0,18.0,79,0.00,,SKC,0.00,VWS V14.01,2013-09-28 14:11:00,
2013-09-28 09:16:00,67.3,60.6,29.48,SE,133,11.0,18.0,79,0.00,,SKC,0.00,VWS V14.01,2013-09-28 14:16:00,
2013-09-28 09:21:00,67.4,60.7,29.48,SE,145,11.0,18.0,79,0.00,,SKC,0.00,VWS V14.01,2013-09-28 14:21:00,
2013-09-28 09:26:00,67.4,60.7,29.48,SE,136,16.0,18.0,79,0.00,,SKC,0.00,VWS V14.01,2013-09-28 14:26:00,
2013-09-28 09:30:00,66.7,60.3,29.50,SE,142,9.0,20.0,80,0.00,,SKC,0.00,VWS V14.01,2013-09-28 14:30:00,
2013-09-28 09:31:00,67.4,60.7,29.48,SE,140,3.0,8.0,79,0.00,,SKC,0.00,VWS V14.01,2013-09-28 14:31:00,
2013-09-28 09:36:00,67.4,60.7,29.48,SE,126,2.0,13.0,79,0.00,,SKC,0.00,VWS V14.01,2013-09-28 14:36:00,
2013-09-28 09:41:00,67.3,60.9,29.48,ESE,121,10.0,13.0,80,0.00,,SKC,0.00,VWS V14.01,2013-09-28 14:41:00,
2013-09-28 09:47:00,67.2,60.8,29.47,SE,135,8.0,15.0,80,0.00,,SKC,0.00,VWS V14.01,2013-09-28 14:47:00,
2013-09-28 09:52:00,67.2,60.8,29.47,SE,143,10.0,16.0,80,0.00,,SKC,0.00,VWS V14.01,2013-09-28 14:52:00,
2013-09-28 09:57:00,67.1,61.1,29.47,SE,145,3.0,16.0,81,0.00,,SKC,0.00,VWS V14.01,2013-09-28 14:57:00,
2013-09-28 10:00:00,67.2,60.8,29.49,SE,146,14.0,18.0,80,0.00,,SKC,0.00,VWS V14.01,2013-09-28 15:00:00,
2013-09-28 10:02:00,67.0,61.0,29.47,SE,130,4.0,11.0,81,0.00,,SKC,0.00,VWS V14.01,2013-09-28 15:02:00,
2013-09-28 10:07:00,66.9,61.2,29.47,SSE,150,8.0,15.0,82,0.00,,SKC,0.00,VWS V14.01,2013-09-28 15:07:00,
2013-09-28 10:12:00,66.7,61.7,29.46,SSE,155,5.0,15.0,84,0.00,,SKC,0.00,VWS V14.01,2013-09-28 15:12:00,
2013-09-28 10:17:00,66.4,61.4,29.46,SE,136,1.0,15.0,84,0.00,,SKC,0.00,VWS V14.01,2013-09-28 15:17:00,
2013-09-28 10:22:00,66.1,61.1,29.46,SE,126,2.0,15.0,84,0.00,,SKC,0.00,VWS V14.01,2013-09-28 15:22:00,
2013-09-28 10:27:00,65.9,61.3,29.46,SE,144,2.0,15.0,85,0.00,,SKC,0.00,VWS V14.01,2013-09-28 15:27:00,
2013-09-28 10:30:00,67.4,60.7,29.48,SE,138,6.0,18.0,79,0.00,,SKC,0.00,VWS V14.01,2013-09-28 15:30:00,
2013-09-28 10:32:00,65.7,61.4,29.46,SE,146,4.0,8.0,86,0.01,,SKC,0.01,VWS V14.01,2013-09-28 15:32:00,
2013-09-28 10:37:00,65.3,61.7,29.47,SE,136,5.0,8.0,88,0.01,,SKC,0.01,VWS V14.01,2013-09-28 15:37:00,
2013-09-28 10:42:00,64.9,61.6,29.46,SE,146,6.0,10.0,89,0.01,,SKC,0.01,VWS V14.01,2013-09-28 15:42:00,
2013-09-28 10:47:00,64.4,61.4,29.46,SE,136,6.0,15.0,90,0.01,,SKC,0.01,VWS V14.01,2013-09-28 15:47:00,
2013-09-28 10:52:00,64.0,61.3,29.46,SE,139,1.0,15.0,91,0.01,,SKC,0.01,VWS V14.01,2013-09-28 15:52:00,
2013-09-28 10:57:00,63.7,61.3,29.46,SE,140,2.0,15.0,92,0.01,,SKC,0.01,VWS V14.01,2013-09-28 15:57:00,
2013-09-28 11:00:00,67.1,61.1,29.47,SE,140,5.0,16.0,81,0.00,,SKC,0.00,VWS V14.01,2013-09-28 16:00:00,
2013-09-28 11:02:00,63.6,61.2,29.46,SE,138,5.0,8.0,92,0.01,,SKC,0.01,VWS V14.01,2013-09-28 16:02:00,
2013-09-28 11:07:00,63.4,61.3,29.46,SE,142,7.0,12.0,93,0.01,,SKC,0.01,VWS V14.01,2013-09-28 16:07:00,
2013-09-28 11:12:00,63.3,61.2,29.46,SE,144,4.0,12.0,93,0.01,,SKC,0.01,VWS V14.01,2013-09-28 16:12:00,
2013-09-28 11:17:00,63.2,61.2,29.45,SE,140,11.0,12.0,93,0.01,,SKC,0.01,VWS V14.01,2013-09-28 16:17:00,
2013-09-28 11:22:00,63.3,61.5,29.45,SE,132,8.0,12.0,94,0.01,,SKC,0.01,VWS V14.01,2013-09-28 16:22:00,
2013-09-28 11:27:00,63.3,61.5,29.45,SE,131,4.0,12.0,94,0.01,,SKC,0.01,VWS V14.01,2013-09-28 16:27:00,
2013-09-28 11:30:00,65.8,61.5,29.46,SE,140,8.0,15.0,86,0.01,,SKC,0.01,VWS V14.01,2013-09-28 16:30:00,
2013-09-28 11:32:00,63.4,61.7,29.45,SE,128,3.0,7.0,94,0.00,,SKC,0.01,VWS V14.01,2013-09-28 16:32:00,
2013-09-28 11:37:00,63.3,61.5,29.45,SSE,147,4.0,11.0,94,0.00,,SKC,0.01,VWS V14.01,2013-09-28 16:37:00,
2013-09-28 11:42:00,63.3,61.5,29.45,SE,136,1.0,11.0,94,0.00,,SKC,0.01,VWS V14.01,2013-09-28 16:42:00,
2013-09-28 11:47:00,63.4,61.7,29.45,SE,135,1.0,12.0,94,0.00,,SKC,0.01,VWS V14.01,2013-09-28 16:47:00,
2013-09-28 11:52:00,63.5,61.8,29.45,SE,129,5.0,12.0,94,0.00,,SKC,0.01,VWS V14.01,2013-09-28 16:52:00,
2013-09-28 11:57:00,63.5,61.8,29.45,SE,138,0.0,12.0,94,0.00,,SKC,0.01,VWS V14.01,2013-09-28 16:57:00,
2013-09-28 12:00:00,63.6,61.2,29.46,SE,140,1.0,15.0,92,0.01,,SKC,0.01,VWS V14.01,2013-09-28 17:00:00,
2013-09-28 12:02:00,63.6,61.8,29.45,SE,138,2.0,8.0,94,0.00,,SKC,0.01,VWS V14.01,2013-09-28 17:02:00,
2013-09-28 12:07:00,61.9,60.2,29.48,SW,236,5.0,10.0,94,0.00,,SKC,0.01,VWS V14.01,2013-09-28 17:07:00,
2013-09-28 12:13:00,59.2,56.9,29.49,West,269,8.0,12.0,92,0.00,,SKC,0.01,VWS V14.01,2013-09-28 17:13:00,
2013-09-28 12:18:00,57.7,55.4,29.49,West,278,1.0,12.0,92,0.00,,SKC,0.01,VWS V14.01,2013-09-28 17:18:00,
2013-09-28 12:23:00,56.7,54.4,29.50,West,261,4.0,12.0,92,0.00,,SKC,0.01,VWS V14.01,2013-09-28 17:23:00,
2013-09-28 12:28:00,55.9,53.9,29.51,WSW,252,1.0,12.0,93,0.00,,SKC,0.01,VWS V14.01,2013-09-28 17:28:00,
2013-09-28 12:30:00,63.3,61.5,29.45,SE,129,6.0,12.0,94,0.01,,SKC,0.01,VWS V14.01,2013-09-28 17:30:00,
2013-09-28 12:33:00,55.4,53.7,29.51,WSW,246,4.0,9.0,94,0.00,,SKC,0.01,VWS V14.01,2013-09-28 17:33:00,
2013-09-28 12:38:00,54.9,53.2,29.52,SW,221,2.0,9.0,94,0.00,,SKC,0.01,VWS V14.01,2013-09-28 17:38:00,
2013-09-28 12:43:00,54.8,53.1,29.52,West,275,4.0,10.0,94,0.00,,SKC,0.01,VWS V14.01,2013-09-28 17:43:00,
2013-09-28 12:48:00,54.7,53.0,29.52,West,271,8.0,10.0,94,0.00,,SKC,0.01,VWS V14.01,2013-09-28 17:48:00,
2013-09-28 12:53:00,54.5,52.8,29.53,West,272,5.0,10.0,94,0.00,,SKC,0.01,VWS V14.01,2013-09-28 17:53:00,
2013-09-28 12:58:00,54.2,52.5,29.53,SW,215,5.0,10.0,94,0.00,,SKC,0.01,VWS V14.01,2013-09-28 17:58:00,
2013-09-28 13:00:00,63.6,61.8,29.45,SE,138,3.0,12.0,94,0.00,,SKC,0.01,VWS V14.01,2013-09-28 18:00:00,
2013-09-28 13:03:00,54.1,52.4,29.54,SW,233,1.0,5.0,94,0.00,,SKC,0.01,VWS V14.01,2013-09-28 18:03:00,
2013-09-28 13:08:00,54.1,52.4,29.54,SW,231,4.0,6.0,94,0.00,,SKC,0.01,VWS V14.01,2013-09-28 18:08:00,
2013-09-28 13:13:00,54.0,52.6,29.55,SW,218,3.0,9.0,95,0.00,,SKC,0.01,VWS V14.01,2013-09-28 18:13:00,
2013-09-28 13:19:00,54.0,52.6,29.54,SW,232,1.0,9.0,95,0.00,,SKC,0.01,VWS V14.01,2013-09-28 18:19:00,
2013-09-28 13:24:00,54.2,52.5,29.53,WNW,285,4.0,9.0,94,0.00,,SKC,0.01,VWS V14.01,2013-09-28 18:24:00,
2013-09-28 13:29:00,54.4,53.0,29.54,West,277,2.0,9.0,95,0.00,,SKC,0.01,VWS V14.01,2013-09-28 18:29:00,
2013-09-28 13:30:00,55.7,53.7,29.51,SW,234,6.0,12.0,93,0.00,,SKC,0.01,VWS V14.01,2013-09-28 18:30:00,
2013-09-28 13:34:00,54.1,52.7,29.54,SW,229,3.0,8.0,95,0.00,,SKC,0.01,VWS V14.01,2013-09-28 18:34:00,
2013-09-28 13:39:00,54.1,52.7,29.54,WSW,252,3.0,8.0,95,0.00,,SKC,0.01,VWS V14.01,2013-09-28 18:39:00,
2013-09-28 13:44:00,54.1,52.7,29.54,WSW,252,3.0,8.0,95,0.00,,SKC,0.01,VWS V14.01,2013-09-28 18:44:00,
2013-09-28 13:49:00,54.0,52.6,29.55,WSW,253,4.0,8.0,95,0.00,,SKC,0.01,VWS V14.01,2013-09-28 18:49:00,
2013-09-28 13:54:00,53.9,52.5,29.55,SW,224,1.0,9.0,95,0.00,,SKC,0.01,VWS V14.01,2013-09-28 18:54:00,
2013-09-28 13:59:00,53.8,52.4,29.56,WSW,238,5.0,9.0,95,0.00,,SKC,0.01,VWS V14.01,2013-09-28 18:59:00,
2013-09-28 14:00:00,54.1,52.4,29.54,SW,234,2.0,10.0,94,0.00,,SKC,0.01,VWS V14.01,2013-09-28 19:00:00,
2013-09-28 14:04:00,53.9,52.5,29.57,West,275,0.0,6.0,95,0.00,,SKC,0.01,VWS V14.01,2013-09-28 19:04:00,
2013-09-28 14:09:00,54.0,52.6,29.58,SW,215,0.0,6.0,95,0.00,,SKC,0.01,VWS V14.01,2013-09-28 19:09:00,
2013-09-28 14:14:00,54.0,52.6,29.57,WSW,251,5.0,8.0,95,0.00,,SKC,0.01,VWS V14.01,2013-09-28 19:14:00,
2013-09-28 14:19:00,54.3,52.9,29.57,WSW,250,0.0,8.0,95,0.00,,SKC,0.01,VWS V14.01,2013-09-28 19:19:00,
2013-09-28 14:24:00,54.5,53.1,29.57,West,259,2.0,8.0,95,0.00,,SKC,0.01,VWS V14.01,2013-09-28 19:24:00,
2013-09-28 14:29:00,54.6,53.2,29.58,West,264,0.0,8.0,95,0.00,,SKC,0.01,VWS V14.01,2013-09-28 19:29:00,
2013-09-28 14:30:00,54.4,53.0,29.53,WSW,247,8.0,9.0,95,0.00,,SKC,0.01,VWS V14.01,2013-09-28 19:30:00,
2013-09-28 14:34:00,54.6,53.2,29.58,WSW,248,0.0,5.0,95,0.00,,SKC,0.01,VWS V14.01,2013-09-28 19:34:00,
2013-09-28 14:39:00,54.7,53.3,29.59,WSW,248,0.0,5.0,95,0.00,,SKC,0.01,VWS V14.01,2013-09-28 19:39:00,
2013-09-28 14:45:00,54.7,53.3,29.59,WSW,249,0.0,6.0,95,0.00,,SKC,0.01,VWS V14.01,2013-09-28 19:45:00,
2013-09-28 14:50:00,54.8,53.4,29.59,WNW,283,0.0,8.0,95,0.00,,SKC,0.01,VWS V14.01,2013-09-28 19:50:00,
2013-09-28 14:55:00,54.9,53.5,29.60,West,280,0.0,8.0,95,0.00,,SKC,0.01,VWS V14.01,2013-09-28 19:55:00,
2013-09-28 15:00:00,54.9,53.5,29.60,West,278,0.0,8.0,95,0.00,,SKC,0.01,VWS V14.01,2013-09-28 20:00:00,
2013-09-28 15:05:00,55.1,53.7,29.60,West,281,2.0,7.0,95,0.00,,SKC,0.01,VWS V14.01,2013-09-28 20:05:00,
2013-09-28 15:10:00,54.9,53.5,29.61,SW,232,2.0,9.0,95,0.00,,SKC,0.01,VWS V14.01,2013-09-28 20:10:00,
2013-09-28 15:15:00,55.1,53.7,29.60,WSW,240,4.0,9.0,95,0.00,,SKC,0.01,VWS V14.01,2013-09-28 20:15:00,
2013-09-28 15:20:00,55.1,53.4,29.61,West,260,1.0,9.0,94,0.00,,SKC,0.01,VWS V14.01,2013-09-28 20:20:00,
2013-09-28 15:25:00,54.9,53.2,29.61,WSW,257,0.0,9.0,94,0.00,,SKC,0.01,VWS V14.01,2013-09-28 20:25:00,
2013-09-28 15:30:00,54.9,53.2,29.61,WSW,257,2.0,9.0,94,0.00,,SKC,0.01,VWS V14.01,2013-09-28 20:30:00,
2013-09-28 15:35:00,55.0,53.3,29.62,WSW,257,0.0,2.0,94,0.00,,SKC,0.01,VWS V14.01,2013-09-28 20:35:00,
2013-09-28 15:40:00,55.3,53.6,29.61,West,268,1.0,5.0,94,0.00,,SKC,0.01,VWS V14.01,2013-09-28 20:40:00,
2013-09-28 15:45:00,55.1,53.1,29.62,WSW,251,6.0,6.0,93,0.00,,SKC,0.01,VWS V14.01,2013-09-28 20:45:00,
2013-09-28 15:50:00,55.1,53.1,29.62,WSW,250,2.0,6.0,93,0.00,,SKC,0.01,VWS V14.01,2013-09-28 20:50:00,
2013-09-28 15:55:00,55.0,53.0,29.61,WSW,250,0.0,6.0,93,0.00,,SKC,0.01,VWS V14.01,2013-09-28 20:55:00,
2013-09-28 16:00:00,55.0,53.0,29.62,WSW,250,0.0,6.0,93,0.00,,SKC,0.01,VWS V14.01,2013-09-28 21:00:00,
2013-09-28 16:05:00,55.0,53.3,29.62,WSW,250,0.0,0.0,94,0.00,,SKC,0.01,VWS V14.01,2013-09-28 21:05:00,
2013-09-28 16:10:00,55.2,53.5,29.63,WSW,250,0.0,0.0,94,0.00,,SKC,0.01,VWS V14.01,2013-09-28 21:10:00,
2013-09-28 16:15:00,55.4,53.7,29.63,NW,310,2.0,10.0,94,0.00,,SKC,0.01,VWS V14.01,2013-09-28 21:15:00,
2013-09-28 16:20:00,55.5,53.8,29.62,WNW,294,4.0,10.0,94,0.00,,SKC,0.01,VWS V14.01,2013-09-28 21:20:00,
2013-09-28 16:25:00,55.6,53.6,29.63,West,281,2.0,10.0,93,0.00,,SKC,0.01,VWS V14.01,2013-09-28 21:25:00,
2013-09-28 16:30:00,55.8,53.5,29.63,West,281,2.0,10.0,92,0.00,,SKC,0.01,VWS V14.01,2013-09-28 21:30:00,
2013-09-28 16:35:00,56.1,53.8,29.64,West,280,5.0,6.0,92,0.00,,SKC,0.01,VWS V14.01,2013-09-28 21:35:00,
2013-09-28 16:40:00,56.3,53.4,29.64,West,280,3.0,8.0,90,0.00,,SKC,0.01,VWS V14.01,2013-09-28 21:40:00,
2013-09-28 16:45:00,56.4,53.2,29.64,SW,235,2.0,8.0,89,0.00,,SKC,0.01,VWS V14.01,2013-09-28 21:45:00,
2013-09-28 16:50:00,56.4,53.2,29.64,WSW,258,2.0,9.0,89,0.00,,SKC,0.01,VWS V14.01,2013-09-28 21:50:00,
2013-09-28 16:55:00,56.5,53.0,29.65,SW,223,2.0,9.0,88,0.00,,SKC,0.01,VWS V14.01,2013-09-28 21:55:00,
2013-09-28 17:00:00,55.0,53.0,29.62,WSW,250,0.0,6.0,93,0.00,,SKC,0.01,VWS V14.01,2013-09-28 22:00:00,
2013-09-28 17:01:00,56.6,53.1,29.65,WNW,288,2.0,12.0,88,0.00,,SKC,0.01,VWS V14.01,2013-09-28 22:01:00,
2013-09-28 17:06:00,56.5,53.6,29.65,WNW,287,4.0,5.0,90,0.00,,SKC,0.01,VWS V14.01,2013-09-28 22:06:00,
2013-09-28 17:11:00,56.3,53.4,29.65,SW,216,0.0,6.0,90,0.00,,SKC,0.01,VWS V14.01,2013-09-28 22:11:00,
2013-09-28 17:16:00,56.2,53.3,29.66,SW,235,0.0,6.0,90,0.00,,SKC,0.01,VWS V14.01,2013-09-28 22:16:00,
2013-09-28 17:21:00,56.2,53.3,29.66,WSW,239,0.0,6.0,90,0.00,,SKC,0.01,VWS V14.01,2013-09-28 22:21:00,
2013-09-28 17:26:00,56.3,53.4,29.66,WSW,238,1.0,6.0,90,0.00,,SKC,0.01,VWS V14.01,2013-09-28 22:26:00,
2013-09-28 17:30:00,55.8,53.5,29.63,West,281,0.0,10.0,92,0.00,,SKC,0.01,VWS V14.01,2013-09-28 22:30:00,
2013-09-28 17:31:00,56.4,53.2,29.66,West,277,1.0,10.0,89,0.00,,SKC,0.01,VWS V14.01,2013-09-28 22:31:00,
2013-09-28 17:36:00,56.3,52.8,29.66,WSW,241,5.0,9.0,88,0.00,,SKC,0.01,VWS V14.01,2013-09-28 22:36:00,
2013-09-28 17:42:00,56.4,52.3,29.67,West,262,2.0,9.0,86,0.00,,SKC,0.01,VWS V14.01,2013-09-28 22:42:00,
2013-09-28 17:47:00,56.3,51.5,29.67,West,264,1.0,9.0,84,0.00,,SKC,0.01,VWS V14.01,2013-09-28 22:47:00,
2013-09-28 17:52:00,56.3,51.2,29.67,SSW,213,7.0,11.0,83,0.00,,SKC,0.01,VWS V14.01,2013-09-28 22:52:00,
2013-09-28 17:57:00,56.4,51.3,29.67,SW,217,4.0,11.0,83,0.00,,SKC,0.01,VWS V14.01,2013-09-28 22:57:00,
2013-09-28 18:00:00,56.5,53.0,29.65,WNW,288,1.0,12.0,88,0.00,,SKC,0.01,VWS V14.01,2013-09-28 23:00:00,
2013-09-28 18:02:00,56.3,51.2,29.68,WSW,238,4.0,6.0,83,0.00,,SKC,0.01,VWS V14.01,2013-09-28 23:02:00,
2013-09-28 18:07:00,56.2,51.1,29.68,SW,227,2.0,6.0,83,0.00,,SKC,0.01,VWS V14.01,2013-09-28 23:07:00,
2013-09-28 18:12:00,56.1,51.0,29.68,SW,224,2.0,6.0,83,0.00,,SKC,0.01,VWS V14.01,2013-09-28 23:12:00,
2013-09-28 18:17:00,56.0,50.6,29.68,SW,225,0.0,6.0,82,0.00,,SKC,0.01,VWS V14.01,2013-09-28 23:17:00,
2013-09-28 18:22:00,55.9,50.8,29.68,SW,225,1.0,6.0,83,0.00,,SKC,0.01,VWS V14.01,2013-09-28 23:22:00,
2013-09-28 18:27:00,55.8,50.7,29.69,SW,225,2.0,6.0,83,0.00,,SKC,0.01,VWS V14.01,2013-09-28 23:27:00,
2013-09-28 18:30:00,56.4,53.2,29.66,West,277,1.0,10.0,89,0.00,,SKC,0.01,VWS V14.01,2013-09-28 23:30:00,
2013-09-28 18:32:00,55.7,51.0,29.69,SW,231,0.0,0.0,84,0.00,,SKC,0.01,VWS V14.01,2013-09-28 23:32:00,
2013-09-28 18:37:00,55.6,50.8,29.69,SW,231,0.0,1.0,84,0.00,,SKC,0.01,VWS V14.01,2013-09-28 23:37:00,
2013-09-28 18:42:00,55.5,51.1,29.69,SW,231,0.0,1.0,85,0.00,,SKC,0.01,VWS V14.01,2013-09-28 23:42:00,
2013-09-28 18:47:00,55.4,51.0,29.70,SW,231,0.0,3.0,85,0.00,,SKC,0.01,VWS V14.01,2013-09-28 23:47:00,
2013-09-28 18:53:00,55.4,51.0,29.70,SW,231,1.0,3.0,85,0.00,,SKC,0.01,VWS V14.01,2013-09-28 23:53:00,
2013-09-28 18:58:00,55.3,50.9,29.70,SW,230,0.0,5.0,85,0.00,,SKC,0.01,VWS V14.01,2013-09-28 23:58:00,
2013-09-28 19:00:00,56.4,51.0,29.67,SW,236,1.0,11.0,82,0.00,,SKC,0.01,VWS V14.01,2013-09-29 00:00:00,
2013-09-28 19:03:00,55.3,50.9,29.71,SW,231,0.0,1.0,85,0.00,,SKC,0.01,VWS V14.01,2013-09-29 00:03:00,
2013-09-28 19:08:00,55.1,51.0,29.71,SW,221,0.0,7.0,86,0.00,,SKC,0.01,VWS V14.01,2013-09-29 00:08:00,
2013-09-28 19:13:00,54.8,50.4,29.71,SW,221,0.0,7.0,85,0.00,,SKC,0.01,VWS V14.01,2013-09-29 00:13:00,
2013-09-28 19:18:00,54.6,50.2,29.72,SW,221,2.0,8.0,85,0.00,,SKC,0.01,VWS V14.01,2013-09-29 00:18:00,
2013-09-28 19:23:00,54.4,50.3,29.72,SW,226,2.0,8.0,86,0.00,,SKC,0.01,VWS V14.01,2013-09-29 00:23:00,
2013-09-28 19:28:00,54.2,50.1,29.72,SW,227,1.0,8.0,86,0.00,,SKC,0.01,VWS V14.01,2013-09-29 00:28:00,
2013-09-28 19:30:00,55.7,50.6,29.69,SW,231,0.0,8.0,83,0.00,,SKC,0.01,VWS V14.01,2013-09-29 00:30:00,
2013-09-28 19:33:00,54.1,49.7,29.72,SW,228,0.0,2.0,85,0.00,,SKC,0.01,VWS V14.01,2013-09-29 00:33:00,
2013-09-28 19:38:00,53.9,49.8,29.73,SW,228,0.0,2.0,86,0.00,,SKC,0.01,VWS V14.01,2013-09-29 00:38:00,
2013-09-28 19:43:00,53.7,49.6,29.73,SW,228,0.0,2.0,86,0.00,,SKC,0.01,VWS V14.01,2013-09-29 00:43:00,
2013-09-28 19:48:00,53.6,49.8,29.73,SW,228,0.0,2.0,87,0.00,,SKC,0.01,VWS V14.01,2013-09-29 00:48:00,
2013-09-28 19:53:00,53.3,49.5,29.74,SW,228,0.0,2.0,87,0.00,,SKC,0.01,VWS V14.01,2013-09-29 00:53:00,
2013-09-28 19:58:00,53.2,49.4,29.74,SW,228,0.0,3.0,87,0.00,,SKC,0.01,VWS V14.01,2013-09-29 00:58:00,
2013-09-28 20:00:00,55.3,50.9,29.70,SW,231,0.0,5.0,85,0.00,,SKC,0.01,VWS V14.01,2013-09-29 01:00:00,
2013-09-28 20:03:00,53.1,49.7,29.74,SW,228,0.0,1.0,88,0.00,,SKC,0.01,VWS V14.01,2013-09-29 01:03:00,
2013-09-28 20:08:00,52.9,49.5,29.74,SW,228,0.0,1.0,88,0.00,,SKC,0.01,VWS V14.01,2013-09-29 01:08:00,
2013-09-28 20:13:00,52.6,48.8,29.75,SW,228,0.0,4.0,87,0.00,,SKC,0.01,VWS V14.01,2013-09-29 01:13:00,
2013-09-28 20:18:00,52.5,48.8,29.75,SW,228,0.0,4.0,87,0.00,,SKC,0.01,VWS V14.01,2013-09-29 01:18:00,
2013-09-28 20:24:00,52.3,48.9,29.76,SW,228,0.0,4.0,88,0.00,,SKC,0.01,VWS V14.01,2013-09-29 01:24:00,
2013-09-28 20:29:00,52.1,48.7,29.76,SW,229,0.0,4.0,88,0.00,,SKC,0.01,VWS V14.01,2013-09-29 01:29:00,
2013-09-28 20:30:00,54.1,49.7,29.72,SW,228,1.0,8.0,85,0.00,,SKC,0.01,VWS V14.01,2013-09-29 01:30:00,
2013-09-28 20:34:00,52.0,48.6,29.76,SW,228,0.0,2.0,88,0.00,,SKC,0.01,VWS V14.01,2013-09-29 01:34:00,
2013-09-28 20:39:00,51.8,48.4,29.76,WNW,286,0.0,8.0,88,0.00,,SKC,0.01,VWS V14.01,2013-09-29 01:39:00,
2013-09-28 20:44:00,51.8,48.7,29.76,WNW,286,0.0,8.0,89,0.00,,SKC,0.01,VWS V14.01,2013-09-29 01:44:00,
2013-09-28 20:49:00,51.7,48.3,29.76,WNW,286,0.0,8.0,88,0.00,,SKC,0.01,VWS V14.01,2013-09-29 01:49:00,
2013-09-28 20:54:00,51.5,48.1,29.76,WNW,286,0.0,8.0,88,0.00,,SKC,0.01,VWS V14.01,2013-09-29 01:54:00,
2013-09-28 20:59:00,51.4,48.0,29.77,WNW,286,0.0,8.0,88,0.00,,SKC,0.01,VWS V14.01,2013-09-29 01:59:00,
2013-09-28 21:00:00,53.1,49.3,29.74,SW,228,0.0,3.0,87,0.00,,SKC,0.01,VWS V14.01,2013-09-29 02:00:00,
2013-09-28 21:04:00,51.3,48.2,29.77,WNW,286,0.0,0.0,89,0.00,,SKC,0.01,VWS V14.01,2013-09-29 02:04:00,
2013-09-28 21:10:00,51.1,48.0,29.77,WNW,286,0.0,0.0,89,0.00,,SKC,0.01,VWS V14.01,2013-09-29 02:10:00,
2013-09-28 21:15:00,50.9,47.8,29.77,WNW,286,0.0,0.0,89,0.00,,SKC,0.01,VWS V14.01,2013-09-29 02:15:00,
2013-09-28 21:20:00,50.7,47.6,29.77,WNW,286,0.0,0.0,89,0.00,,SKC,0.01,VWS V14.01,2013-09-29 02:20:00,
2013-09-28 21:25:00,50.6,47.5,29.77,WNW,286,0.0,2.0,89,0.00,,SKC,0.01,VWS V14.01,2013-09-29 02:25:00,
2013-09-28 21:30:00,50.5,47.4,29.77,WNW,286,0.0,2.0,89,0.00,,SKC,0.01,VWS V14.01,2013-09-29 02:30:00,
2013-09-28 21:35:00,50.4,47.3,29.77,WNW,286,0.0,1.0,89,0.00,,SKC,0.01,VWS V14.01,2013-09-29 02:35:00,
2013-09-28 21:40:00,50.4,47.3,29.77,WNW,286,0.0,1.0,89,0.00,,SKC,0.01,VWS V14.01,2013-09-29 02:40:00,
2013-09-28 21:45:00,50.3,47.2,29.77,WNW,286,0.0,1.0,89,0.00,,SKC,0.01,VWS V14.01,2013-09-29 02:45:00,
2013-09-28 21:50:00,50.1,47.3,29.77,WNW,286,0.0,1.0,90,0.00,,SKC,0.01,VWS V14.01,2013-09-29 02:50:00,
2013-09-28 21:55:00,50.2,47.1,29.77,WNW,286,0.0,1.0,89,0.00,,SKC,0.01,VWS V14.01,2013-09-29 02:55:00,
2013-09-28 22:00:00,51.3,47.9,29.77,WNW,286,0.0,8.0,88,0.00,,SKC,0.01,VWS V14.01,2013-09-29 03:00:00,
2013-09-28 22:01:00,50.5,47.4,29.77,WNW,286,0.0,1.0,89,0.00,,SKC,0.01,VWS V14.01,2013-09-29 03:01:00,
2013-09-28 22:06:00,50.8,47.4,29.77,WNW,286,0.0,0.0,88,0.00,,SKC,0.01,VWS V14.01,2013-09-29 03:06:00,
2013-09-28 22:11:00,50.9,47.8,29.77,WNW,286,0.0,0.0,89,0.00,,SKC,0.01,VWS V14.01,2013-09-29 03:11:00,
2013-09-28 22:16:00,50.9,47.8,29.77,WNW,286,0.0,0.0,89,0.00,,SKC,0.01,VWS V14.01,2013-09-29 03:16:00,
2013-09-28 22:21:00,50.8,47.7,29.77,WNW,286,0.0,0.0,89,0.00,,SKC,0.01,VWS V14.01,2013-09-29 03:21:00,
2013-09-28 22:26:00,50.7,47.6,29.77,WNW,286,0.0,0.0,89,0.00,,SKC,0.01,VWS V14.01,2013-09-29 03:26:00,
2013-09-28 22:30:00,50.5,47.4,29.77,WNW,286,0.0,2.0,89,0.00,,SKC,0.01,VWS V14.01,2013-09-29 03:30:00,
2013-09-28 22:31:00,50.5,47.4,29.77,WNW,286,0.0,0.0,89,0.00,,SKC,0.01,VWS V14.01,2013-09-29 03:31:00,
2013-09-28 22:37:00,50.4,47.3,29.77,WNW,286,0.0,0.0,89,0.00,,SKC,0.01,VWS V14.01,2013-09-29 03:37:00,
2013-09-28 22:42:00,50.3,47.2,29.77,WNW,286,0.0,0.0,89,0.00,,SKC,0.01,VWS V14.01,2013-09-29 03:42:00,
2013-09-28 22:47:00,50.2,47.4,29.77,WNW,286,0.0,0.0,90,0.00,,SKC,0.01,VWS V14.01,2013-09-29 03:47:00,
2013-09-28 22:52:00,50.0,47.2,29.77,WNW,286,0.0,0.0,90,0.00,,SKC,0.01,VWS V14.01,2013-09-29 03:52:00,
2013-09-28 22:57:00,49.9,47.1,29.77,WNW,286,0.0,0.0,90,0.00,,SKC,0.01,VWS V14.01,2013-09-29 03:57:00,
2013-09-28 23:00:00,50.5,47.1,29.77,WNW,286,0.0,1.0,88,0.00,,SKC,0.01,VWS V14.01,2013-09-29 04:00:00,
2013-09-28 23:01:00,49.8,47.3,29.77,WNW,286,0.0,0.0,91,0.00,,SKC,0.01,VWS V14.01,2013-09-29 04:01:00,
2013-09-28 23:03:00,49.8,47.3,29.77,WNW,286,0.0,0.0,91,0.00,,SKC,0.01,VWS V14.01,2013-09-29 04:03:00,
2013-09-28 23:04:00,49.8,47.3,29.77,WNW,286,0.0,0.0,91,0.00,,SKC,0.01,VWS V14.01,2013-09-29 04:04:00,
2013-09-28 23:09:00,49.6,47.1,29.77,WNW,286,0.0,0.0,91,0.00,,SKC,0.01,VWS V14.01,2013-09-29 04:09:00,
2013-09-28 23:13:00,49.5,47.0,29.77,WNW,286,0.0,0.0,91,0.00,,SKC,0.01,VWS V14.01,2013-09-29 04:13:00,
2013-09-28 23:18:00,49.4,46.9,29.77,WNW,286,0.0,0.0,91,0.00,,SKC,0.01,VWS V14.01,2013-09-29 04:18:00,
2013-09-28 23:23:00,49.3,46.8,29.78,WNW,286,0.0,0.0,91,0.00,,SKC,0.01,VWS V14.01,2013-09-29 04:23:00,
2013-09-28 23:28:00,49.2,46.7,29.78,WNW,286,0.0,2.0,91,0.00,,SKC,0.01,VWS V14.01,2013-09-29 04:28:00,
2013-09-28 23:30:00,50.6,47.5,29.77,WNW,286,0.0,0.0,89,0.00,,SKC,0.01,VWS V14.01,2013-09-29 04:30:00,
2013-09-28 23:33:00,49.2,46.7,29.78,WNW,286,0.0,2.0,91,0.00,,SKC,0.01,VWS V14.01,2013-09-29 04:33:00,
2013-09-28 23:38:00,49.1,46.6,29.78,WNW,286,0.0,2.0,91,0.00,,SKC,0.01,VWS V14.01,2013-09-29 04:38:00,
2013-09-28 23:43:00,48.9,46.4,29.77,WNW,286,0.0,2.0,91,0.00,,SKC,0.01,VWS V14.01,2013-09-29 04:43:00,
2013-09-28 23:49:00,49.0,46.5,29.78,WNW,286,0.0,3.0,91,0.00,,SKC,0.01,VWS V14.01,2013-09-29 04:49:00,
2013-09-28 23:54:00,49.0,46.5,29.78,WNW,286,0.0,3.0,91,0.00,,SKC,0.01,VWS V14.01,2013-09-29 04:54:00,
2013-09-28 23:59:00,48.9,46.4,29.78,WNW,286,0.0,3.0,91,0.00,,SKC,0.01,VWS V14.01,2013-09-29 04:59:00,